Location: Ferintosh
(52.7647°N, 112.9692°W)
Time: 13:09:14
(UTC+00:00)

Transit 2A - Pass Details

Date: 22 May 2024
Orbit: 593 x 959 km, 66.7° (Epoch: 14 June)

Event Time Altitude Azimuth Distance (km) Brightness Sun altitude
Rises 09:55:43 0° 289° (WNW) 3,121 9.0 -10.1°
Reaches altitude 10° 09:58:38 10° 307° (NW) 2,271 8.5 -9.8°
Maximum altitude 10:02:23 19° 353° (N) 1,792 8.6 -9.5°
Drops below altitude 10° 10:06:24 10° 39° (NE) 2,454 10.3 -9.1°
Sets 10:09:43 0° 56° (NE) 3,461 11.0 -8.8°
